EW7175 Weather Reports


Display with metric or nautical units.
time (UTC)temp
F
wind
direction
speed
MPH
gust
MPH
rain 1hr
in
rain 24hr
in
rain mn
in
humidity
%
barometer
mb
20260906020101 81 43 0.0 0.0 0.00 0.00 0.00 88 1009.9
20260906014604 81 42 0.0 0.0 0.00 0.00 0.00 89 1009.7
20260906013056 81 39 0.0 0.0 0.00 0.00 0.00 89 1009.4
20260906011601 81 39 0.0 0.0 0.00 0.00 0.00 88 1009.5
20260906010055 81 39 0.0 0.0 0.00 0.00 0.00 88 1009.4
20260906004557 82 47 0.0 0.0 0.00 0.00 0.00 87 1009.7
20260906003105 82 38 0.0 4.0 0.00 0.00 0.00 85 1009.8
20260906001555 83 55 1.0 4.0 0.00 0.00 0.00 81 1009.9
20260906000054 85 61 2.0 6.0 0.00 0.00 0.00 76 1010.1
20260905234603 86 37 1.0 5.0 0.00 0.00 0.00 71 1010.1
20260905233053 86 42 0.0 2.0 0.00 0.00 0.00 71 1010.2
20260905231552 86 42 1.0 4.0 0.00 0.00 0.00 69 1010.0
20260905230053 87 34 1.0 4.0 0.00 0.00 0.00 69 1009.9
20260905224552 87 30 1.0 5.0 0.00 0.01 0.00 68 1009.8
20260905223052 88 49 0.0 0.0 0.00 0.01 0.00 69 1009.8
20260905221550 89 5 0.0 0.0 0.00 0.01 0.00 66 1009.7
20260905220052 89 174 0.0 0.0 0.00 0.01 0.00 69 1009.5
20260905214602 90 188 0.0 0.0 0.00 0.01 0.00 67 1009.5
20260905213049 91 130 0.0 0.0 0.00 0.01 0.00 65 1009.4
20260905211547 92 129 0.0 0.0 0.00 0.01 0.00 63 1009.7
20260905210048 94 154 0.0 0.0 0.00 0.01 0.00 60 1009.7
20260905204546 95 143 0.0 0.0 0.00 0.01 0.00 57 1009.5
20260905203044 98 24 0.0 0.0 0.00 0.01 0.00 49 1009.6
20260905201541 96 275 0.0 0.0 0.00 0.01 0.00 51 1009.8
20260905200044 96 261 0.0 0.0 0.00 0.01 0.00 51 1010.0
20260905194535 96 319 0.0 0.0 0.00 0.01 0.00 51 1010.1
20260905193032 96 306 0.0 0.0 0.00 0.01 0.00 51 1010.3
20260905191528 94 164 0.0 0.0 0.00 0.01 0.00 54 1010.6
20260905190025 94 173 0.0 0.0 0.00 0.01 0.00 58 1010.7
20260905184527 92 258 0.0 0.0 0.00 0.01 0.00 59 1010.8
20260905183027 91 169 0.0 0.0 0.00 0.01 0.00 62 1011.1
20260905181519 90 169 0.0 0.0 0.00 0.01 0.00 64 1011.4
20260905180018 90 169 0.0 0.0 0.00 0.01 0.00 68 1011.8
20260905174529 90 177 0.0 0.0 0.00 0.11 0.00 65 1012.1
20260905173017 90 177 0.0 0.0 0.00 0.11 0.00 66 1012.3
20260905171517 90 177 0.0 0.0 0.00 0.11 0.00 65 1012.3
20260905170017 92 304 0.0 0.0 0.00 0.11 0.00 65 1012.4
20260905164515 93 9 0.0 0.0 0.00 0.11 0.00 62 1012.4
20260905163011 90 300 0.0 0.0 0.00 0.11 0.00 67 1012.5
20260905161510 91 10 0.0 0.0 0.00 0.11 0.00 67 1012.6
20260905160008 89 10 0.0 0.0 0.00 0.11 0.00 71 1012.6
20260905154504 88 258 0.0 0.0 0.00 0.11 0.00 73 1012.6
20260905153106 87 177 0.0 0.0 0.00 0.11 0.00 77 1012.6
20260905151559 87 176 0.0 0.0 0.00 0.11 0.00 78 1012.6
20260905150056 86 163 0.0 0.0 0.00 0.11 0.00 82 1012.6
20260905144553 84 266 0.0 0.0 0.00 0.11 0.00 86 1012.6
20260905143049 83 128 0.0 0.0 0.00 0.11 0.00 88 1012.6
20260905141607 82 128 0.0 0.0 0.00 0.11 0.00 90 1012.4
20260905140054 81 128 0.0 0.0 0.00 0.11 0.00 93 1012.5
20260905134542 80 164 0.0 0.0 0.00 0.11 0.00 95 1012.4
20260905133050 79 167 0.0 0.0 0.00 0.11 0.00 97 1012.3
20260905131550 78 168 0.0 0.0 0.00 0.11 0.00 97 1012.3
20260905130033 77 168 0.0 0.0 0.00 0.11 0.00 97 1012.3
20260905124532 77 168 0.0 0.0 0.00 0.11 0.00 96 1012.1
20260905123031 77 168 0.0 0.0 0.00 0.11 0.00 96 1012.0
20260905121527 77 168 0.0 0.0 0.00 0.11 0.00 96 1011.6
20260905120025 77 168 0.0 0.0 0.00 0.11 0.00 96 1011.5
20260905114532 77 168 0.0 0.0 0.00 0.11 0.00 96 1011.4
20260905113024 77 168 0.0 0.0 0.00 0.11 0.00 96 1011.3
20260905111521 77 168 0.0 0.0 0.00 0.11 0.00 96 1011.2
20260905110018 77 168 0.0 0.0 0.00 0.11 0.00 95 1011.0
20260905104513 77 168 0.0 0.0 0.00 0.11 0.00 96 1010.9
20260905103028 77 168 0.0 0.0 0.00 0.11 0.00 96 1011.0
20260905101515 77 168 0.0 0.0 0.00 0.11 0.00 95 1010.9
20260905100012 77 168 0.0 0.0 0.00 0.11 0.00 95 1010.8
20260905094511 77 168 0.0 0.0 0.00 0.11 0.00 95 1010.8
20260905093012 77 168 0.0 0.0 0.00 0.11 0.00 95 1010.9
20260905091510 77 168 0.0 0.0 0.00 0.11 0.00 95 1010.8
20260905090009 77 168 0.0 0.0 0.00 0.11 0.00 95 1010.8
20260905084514 78 168 0.0 0.0 0.00 0.11 0.00 95 1010.7
20260905083007 78 168 0.0 0.0 0.00 0.11 0.00 95 1010.7
20260905081505 78 168 0.0 0.0 0.00 0.11 0.00 94 1010.8
20260905080005 78 168 0.0 0.0 0.00 0.11 0.00 94 1010.8
20260905074506 78 168 0.0 0.0 0.00 0.11 0.00 94 1010.8
20260905073108 78 168 0.0 0.0 0.00 0.11 0.00 94 1011.0
20260905071558 78 168 0.0 0.0 0.00 0.11 0.00 93 1011.1
20260905070057 78 168 0.0 0.0 0.00 0.11 0.00 93 1011.3
20260905064610 79 168 0.0 0.0 0.00 0.11 0.00 93 1011.3
20260905063059 79 168 0.0 0.0 0.00 0.11 0.00 93 1011.4
20260905061614 79 168 0.0 0.0 0.00 0.11 0.00 92 1011.4
20260905060054 79 168 0.0 0.0 0.00 0.11 0.00 91 1011.4
20260905054600 79 168 0.0 0.0 0.00 0.11 0.00 91 1011.4
20260905053050 80 168 0.0 0.0 0.00 0.11 0.00 90 1011.5
20260905051604 80 168 0.0 0.0 0.00 0.11 0.00 90 1011.5
20260905050041 80 168 0.0 0.0 0.00 0.11 0.00 90 1011.6
20260905044552 80 168 0.0 0.0 0.00 0.11 0.11 89 1011.5
20260905043042 80 168 0.0 0.0 0.00 0.11 0.11 89 1011.5
20260905041540 80 167 0.0 0.0 0.00 0.11 0.11 88 1011.5
20260905040048 80 167 0.0 0.0 0.00 0.11 0.11 87 1011.6
20260905034556 80 167 0.0 0.0 0.00 0.11 0.11 86 1011.7
20260905033058 80 167 0.0 0.0 0.00 0.11 0.11 85 1011.7
20260905031539 80 167 0.0 0.0 0.00 0.11 0.11 84 1011.9
20260905030038 80 167 0.0 0.0 0.00 0.11 0.11 84 1011.8
20260905024538 81 167 0.0 0.0 0.00 0.11 0.11 83 1011.7
20260905023115 81 167 0.0 0.0 0.00 0.11 0.11 81 1011.5
20260905021537 81 167 0.0 0.0 0.00 0.11 0.11 80 1011.4